Dewpoint
24 19 17 16 16 15 16 15 14 15 17 16 15 15 15 17 18 20 25 30 30 30 31 34 34 39 40 40 41 42 42 41 43 42 42 44 47 47 47 51 52 54 54 54 55 54 56 57 58 61 61 62 64 65 66 68 67 69 68 69 71 71 73 73 73 73 72 73 72 72 72 72 73 73 74 73 73 72 71 77 76 77 76 77 77 77
22 19 16 15 15 14 13 14 13 13 14 15 15 16 15 17 18 20 23 30 31 30 31 34 36 36 40 40 40 43 42 41 43 44 43 43 47 47 47 49 52 53 54 54 55 55 55 58 58 60 60 64 63 65 66 68 67 68 69 68 72 70 72 73 73 73 72 72 72 72 72 72 73 73 73 73 72 71 75 77 77 77 77 77 77 77
19 17 15 15 15 14 13 14 13 13 14 15 15 16 16 16 17 20 23 30 31 31 34 33 34 37 39 40 41 42 42 43 43 45 45 44 47 48 47 48 52 52 53 54 55 55 55 57 57 60 61 62 62 66 65 68 67 68 71 68 72 71 72 72 73 72 72 72 73 72 73 72 72 74 74 73 73 72 75 77 77 77 77 77 77 78
17 15 14 15 16 14 13 12 13 14 15 15 15 16 15 15 16 19 23 28 31 31 31 36 32 37 39 41 41 42 42 44 44 45 46 46 46 47 47 47 51 52 53 54 55 54 55 55 57 60 61 61 62 67 67 68 68 68 71 70 70 72 73 72 73 73 72 73 74 73 73 73 72 72 73 73 74 73 75 76 77 77 77 77 77 77
17 14 15 14 13 13 11 10 9 8 12 14 14 13 12 14 16 18 24 25 28 30 31 33 37 39 40 41 40 42 43 43 44 45 46 47 48 48 48 48 50 52 53 54 55 55 55 55 57 59 61 61 63 67 67 68 69 69 70 71 70 71 73 73 73 73 73 74 74 73 74 73 73 73 73 72 72 71 74 76 76 77 77 76 77 77
18 16 14 14 12 10 10 8 7 5 6 9 13 13 12 14 16 17 18 25 24 29 31 31 33 36 40 43 41 43 44 44 45 44 45 48 49 49 48 49 50 52 53 55 56 55 55 55 57 59 61 61 62 66 68 69 70 69 70 72 71 71 73 73 73 74 73 73 73 73 72 71 70 70 71 70 70 71 72 75 75 76 77 77 76 76
19 18 14 11 10 8 7 6 5 4 3 6 9 12 13 13 14 14 15 19 32 28 31 31 31 35 40 44 43 44 43 44 45 46 46 49 50 48 48 50 50 50 53 54 56 56 55 56 57 60 61 60 61 64 68 69 70 70 70 72 72 71 72 73 74 74 74 73 73 72 72 71 70 70 70 71 71 70 72 73 76 75 76 77 75 74
21 19 15 13 9 7 5 4 4 3 3 5 8 11 13 13 13 13 13 14 33 29 30 30 31 36 36 37 44 45 43 43 44 45 46 48 50 49 49 50 51 51 52 53 55 56 56 56 57 60 61 61 61 64 67 68 71 71 71 72 73 73 72 73 74 74 74 73 73 72 72 72 71 71 70 72 72 71 72 72 76 76 76 76 75 74
19 19 18 14 11 6 4 3 4 3 1 4 7 8 11 12 12 12 13 15 19 30 30 28 30 32 36 40 39 44 43 43 44 45 48 48 49 50 50 50 51 51 53 53 53 55 56 56 57 61 62 62 62 64 66 68 70 72 72 72 73 73 73 73 74 74 74 74 73 73 72 72 73 72 72 73 73 73 73 71 74 75 75 75 74 74
18 18 18 17 14 8 6 4 3 2 -0 1 5 9 10 10 12 13 14 14 19 24 29 32 30 31 34 39 39 39 41 42 43 45 46 50 51 49 50 50 52 51 53 54 53 54 56 56 56 61 62 63 63 65 67 68 70 72 72 72 73 73 73 73 73 74 74 74 74 73 73 72 73 73 73 73 73 73 73 71 71 73 73 73 73 73
18 25 25 17 15 13 8 5 3 2 0 1 3 4 5 6 8 15 18 21 26 20 30 30 31 31 30 35 37 39 37 43 44 45 46 47 51 50 50 49 52 51 52 54 54 54 56 57 57 60 63 63 64 65 67 67 69 71 72 72 72 73 74 74 73 73 73 74 74 73 73 73 73 73 73 72 72 73 72 71 72 72 72 72 71 73
17 17 17 18 19 15 13 7 4 3 0 -2 -1 2 4 10 16 19 31 27 17 17 32 30 29 30 28 35 36 39 40 41 44 44 46 46 47 51 51 49 49 53 53 53 55 55 55 58 58 60 63 64 64 66 67 67 69 71 72 72 72 73 74 74 74 73 73 73 74 73 73 73 73 73 73 72 72 72 72 71 71 72 72 72 71 72
16 16 16 15 27 17 13 9 6 3 1 -2 -2 6 6 12 15 12 16 16 20 16 23 20 21 25 29 37 36 37 39 40 43 45 45 46 47 49 51 50 51 52 53 53 55 56 56 58 59 59 63 64 65 66 67 67 68 70 72 72 72 72 73 74 74 73 73 73 73 74 74 74 74 73 73 72 73 72 72 71 71 72 71 72 71 71
17 18 17 15 15 22 17 9 10 7 3 -2 -2 6 14 11 11 12 17 19 24 26 19 18 19 17 27 34 36 36 37 39 44 45 46 46 47 48 50 50 49 51 52 54 54 56 57 58 60 59 62 65 65 66 67 67 68 70 71 72 72 72 73 74 74 74 73 73 73 74 74 74 74 73 73 73 72 72 72 72 72 71 71 71 70 71
16 16 17 17 14 17 17 16 12 8 1 0 -3 -3 10 14 13 13 12 14 14 23 24 16 15 24 17 23 36 37 38 39 40 43 45 46 46 48 49 50 49 49 51 54 55 56 58 59 60 60 61 64 65 65 67 67 68 70 71 73 73 73 73 73 74 74 74 74 74 74 74 74 74 74 73 73 73 73 72 72 72 71 71 71 71 71
14 16 19 18 16 17 17 18 18 12 3 1 -1 8 1 5 19 13 22 16 21 23 17 20 21 25 20 37 36 35 36 37 40 40 43 46 45 46 47 49 49 49 50 53 55 56 58 59 60 61 61 63 65 66 66 68 69 70 71 73 73 73 73 73 74 74 74 74 74 74 74 74 74 74 74 73 73 73 73 72 72 72 71 70 70 70
14 13 15 17 17 14 16 18 17 15 6 4 1 -2 -4 5 10 24 28 25 26 19 15 31 33 27 31 26 23 35 35 37 39 40 40 45 46 47 47 48 49 49 52 54 56 56 60 60 60 60 61 63 65 66 66 68 69 70 71 72 73 74 74 74 74 74 74 74 74 74 74 74 74 74 74 73 73 73 73 73 72 72 71 70 70 70
15 15 12 13 15 15 15 17 16 14 8 5 -1 -1 12 8 13 22 15 18 13 17 19 14 16 22 26 27 25 31 32 33 38 39 39 47 47 47 47 49 49 51 52 54 56 57 59 61 61 60 61 62 64 66 66 68 68 69 71 72 73 74 74 74 74 74 74 74 74 75 74 74 74 74 74 74 74 74 74 73 72 72 71 69 70 69
12 12 13 13 14 15 15 15 15 13 7 4 5 5 1 10 3 18 21 13 13 11 13 23 17 17 25 35 25 29 30 32 36 38 38 47 49 48 49 50 51 52 53 53 53 57 59 61 62 61 60 61 64 66 67 68 68 69 70 72 73 73 74 74 74 74 74 74 75 75 74 74 74 74 74 74 74 74 73 72 72 71 71 70 70 70
15 12 13 13 13 14 14 13 12 11 8 6 7 5 7 5 8 6 12 15 16 18 21 11 19 24 32 22 31 30 33 34 36 37 36 45 48 48 49 49 50 52 53 53 53 55 58 59 61 62 61 61 63 66 67 67 68 68 69 72 73 73 74 75 74 74 74 74 74 75 75 74 74 74 74 74 74 74 73 73 72 71 71 70 70 69
12 22 17 11 11 14 13 14 12 12 9 6 6 5 6 8 8 4 12 3 14 17 19 23 16 21 31 31 20 27 35 34 35 38 37 42 45 47 48 48 50 51 52 53 53 53 56 58 59 62 62 62 63 66 66 67 67 68 69 70 72 73 74 74 74 74 74 74 74 74 74 74 74 74 74 74 74 74 73 73 72 71 71 71 70 69
12 16 14 17 12 11 14 16 14 12 12 10 8 7 7 5 6 2 7 4 2 7 18 20 19 33 30 19 38 32 36 34 34 38 38 40 43 45 46 46 48 50 51 52 52 52 54 57 58 60 62 62 63 65 65 66 67 67 68 69 71 72 73 74 74 74 74 74 74 74 74 74 74 74 74 73 74 74 73 73 72 72 71 71 70 69
13 26 17 12 12 11 13 15 15 13 12 11 10 9 9 7 7 10 9 14 2 2 5 24 22 26 32 35 26 25 43 35 39 41 39 38 40 42 46 46 47 49 51 51 51 52 54 56 58 59 61 62 62 65 65 66 66 67 67 68 70 72 73 74 74 74 74 74 74 74 74 74 74 74 74 73 73 74 73 73 73 72 71 71 71 70
43 17 18 15 22 16 14 15 14 14 12 12 11 11 9 7 4 2 15 22 17 18 9 17 24 21 31 27 44 39 48 35 38 40 38 37 38 40 47 46 47 49 51 51 51 52 54 57 58 59 60 62 63 64 65 66 66 66 67 68 69 71 72 73 74 74 74 74 74 74 74 74 74 74 73 73 73 73 73 73 73 73 72 71 71 70
17 19 22 22 16 19 18 20 15 13 13 12 10 10 9 6 3 1 2 31 13 11 10 11 12 20 34 23 27 47 40 35 40 40 39 37 39 38 41 51 50 50 52 52 53 53 54 56 58 59 60 62 64 64 65 66 66 66 66 67 68 69 72 73 74 74 74 74 73 74 74 73 74 73 73 73 73 73 73 73 73 73 72 72 71 71
15 22 20 18 17 15 17 17 20 15 12 13 13 10 9 7 5 4 1 9 14 33 24 20 21 28 35 20 15 17 25 43 40 38 38 37 37 37 39 52 52 53 54 54 54 54 55 57 59 60 62 64 64 64 66 66 66 66 66 66 67 69 71 72 73 74 75 74 73 73 73 73 73 73 73 73 73 73 73 73 73 73 73 72 71 71
17 25 21 19 19 19 21 32 35 28 14 13 13 13 11 8 7 5 14 13 9 31 28 25 29 35 29 19 14 14 19 21 43 40 40 38 40 40 41 51 52 52 54 54 55 55 57 59 60 62 63 64 64 64 65 66 66 66 66 66 66 68 70 72 73 74 75 74 73 73 73 73 73 73 73 73 73 73 72 72 72 73 73 72 72 71
33 20 22 27 23 24 30 27 22 24 15 14 13 13 13 11 8 5 8 4 19 17 16 32 40 21 20 31 24 18 22 28 46 41 40 56 52 43 46 52 56 51 54 54 54 55 57 60 62 64 65 65 65 65 65 66 67 66 66 66 66 67 69 71 73 74 75 74 74 73 73 73 73 73 73 73 73 72 72 72 72 73 73 73 72 71
39 27 19 22 19 17 17 19 20 19 17 13 13 12 12 12 12 9 14 10 28 12 10 26 40 38 39 32 32 40 39 31 28 43 47 51 54 57 54 51 50 52 54 53 54 56 59 59 61 63 66 67 66 65 66 66 66 67 67 66 66 66 69 71 73 74 74 74 74 73 73 73 73 73 73 73 73 72 72 72 72 73 73 73 72 72
30 32 32 18 20 18 16 15 16 15 16 14 12 11 11 11 11 10 10 11 11 30 26 22 39 37 34 28 25 28 48 44 44 50 43 46 53 55 58 55 51 53 54 54 56 57 60 60 61 63 65 67 67 66 66 67 67 67 67 67 66 67 69 71 72 73 74 74 74 73 73 73 73 73 74 73 73 73 73 72 72 72 73 73 72 72
22 38 31 25 25 17 16 16 14 13 13 16 16 12 11 10 10 9 8 9 19 13 13 19 30 30 31 34 37 40 41 40 45 26 43 49 56 58 58 56 58 56 58 62 61 61 60 61 62 63 66 68 68 67 67 68 68 68 67 68 68 68 69 70 72 72 73 73 74 73 73 73 73 73 73 74 73 73 73 73 72 72 73 73 73 72
22 35 27 34 30 35 24 17 16 16 15 14 16 19 13 10 9 8 11 9 12 29 34 16 21 24 34 34 32 26 31 38 38 47 41 42 46 56 59 57 61 61 62 63 65 65 66 70 69 67 66 68 69 68 67 68 68 68 68 68 68 68 68 70 71 71 72 73 74 74 73 73 73 73 73 74 73 73 73 73 73 72 73 73 72 72
27 30 25 30 28 33 31 26 18 16 16 15 16 16 19 22 31 14 9 15 11 7 13 27 25 31 31 36 25 27 20 22 38 41 42 45 47 41 46 56 60 61 61 62 64 65 65 68 70 70 68 68 69 69 68 69 69 69 68 69 69 68 68 69 70 70 71 72 74 74 74 74 74 73 73 73 74 74 73 73 73 72 72 72 72 72
32 30 30 32 29 31 27 25 27 28 16 17 27 20 21 20 23 22 18 19 17 11 13 19 28 37 42 42 34 34 20 17 23 36 44 39 48 54 52 50 51 52 59 61 62 62 63 65 69 70 69 69 70 69 68 69 69 69 69 69 69 68 67 68 69 70 70 72 73 74 74 74 74 74 73 73 74 74 74 73 73 73 72 73 72 72
27 35 29 33 27 30 32 32 29 26 25 38 31 28 23 21 21 21 24 24 26 34 29 30 29 39 43 43 44 43 41 37 46 42 41 48 47 52 50 50 52 55 49 54 62 62 63 64 66 69 70 70 70 70 69 69 69 70 70 70 69 68 67 68 69 70 71 71 73 74 74 74 74 74 74 74 74 75 74 74 73 73 73 73 73 72
28 26 28 27 27 28 32 30 24 25 37 39 30 31 39 33 30 28 23 22 25 33 43 43 48 45 44 47 49 47 46 46 39 42 45 42 48 46 45 46 46 51 57 57 63 64 64 63 65 67 69 70 70 70 69 69 70 70 71 70 70 69 68 68 69 70 71 71 72 74 74 75 75 75 75 75 75 75 75 74 73 73 73 73 73 73
24 34 24 24 30 23 26 25 24 36 32 36 34 35 31 33 39 33 28 38 46 46 45 48 49 48 50 51 49 46 46 45 42 44 42 39 41 39 38 36 36 43 46 56 62 64 66 65 65 66 69 70 70 70 70 70 70 71 71 71 70 70 69 69 70 71 71 71 73 74 75 75 75 75 75 75 75 75 74 74 74 73 73 72 73 73
36 33 35 22 27 23 25 22 23 24 25 32 40 42 35 38 38 44 47 45 56 51 50 48 50 54 55 55 54 52 49 45 46 43 45 49 48 39 30 26 22 27 34 49 59 59 65 67 66 67 69 70 70 70 70 70 71 71 71 71 71 71 70 70 71 72 72 72 73 75 76 76 76 76 76 75 75 75 74 74 74 73 73 72 72 71
32 46 43 19 39 24 23 22 21 21 28 39 45 39 38 37 35 42 44 45 55 55 51 50 53 55 56 55 53 52 46 42 45 47 53 53 52 47 47 44 35 28 30 33 37 56 63 67 68 68 70 70 70 70 70 70 71 71 71 71 71 71 70 70 71 73 73 73 75 76 76 76 76 76 75 75 75 74 74 74 73 73 73 73 72 70
35 37 39 35 39 38 35 25 22 33 33 42 45 42 39 41 39 40 33 38 54 54 52 51 52 55 57 58 58 56 53 51 54 54 54 58 62 59 55 51 49 57 58 55 45 39 53 68 68 68 69 70 70 71 71 71 71 71 71 71 71 71 70 70 72 74 74 75 76 77 77 76 76 75 75 74 74 74 73 73 73 73 73 73 72 71
38 38 35 35 33 34 38 34 29 32 51 46 45 38 38 40 42 35 32 47 56 53 53 54 55 56 57 57 58 57 58 57 56 57 62 64 64 64 64 61 55 55 60 64 61 67 55 63 68 69 70 72 72 71 71 71 71 71 71 71 71 71 71 71 74 75 76 77 77 77 76 76 76 75 75 74 74 73 73 73 73 73 72 72 72 71
42 37 37 34 33 33 34 37 33 39 50 51 45 41 41 40 35 37 52 58 56 53 57 59 59 59 59 57 57 58 57 58 63 64 64 64 64 64 65 66 66 67 65 70 70 70 69 67 68 70 71 72 72 72 71 71 71 71 72 72 71 71 72 74 76 76 77 77 76 76 76 75 75 75 74 74 73 73 72 72 72 72 72 71 70 70
47 44 41 31 35 32 38 37 34 30 46 45 45 44 46 43 48 53 55 54 55 58 60 61 61 62 63 63 63 63 63 63 63 63 64 64 64 64 65 66 67 67 68 68 68 68 69 70 70 71 72 72 73 73 72 73 72 72 72 72 72 73 74 76 77 77 77 76 76 75 74 74 74 73 73 73 72 72 71 71 71 71 71 69 69 68
51 45 44 44 42 35 32 32 34 42 43 43 41 45 55 55 54 57 53 54 59 60 60 60 61 62 63 63 62 62 62 62 62 63 63 64 64 64 65 66 67 67 66 67 67 68 67 67 67 67 67 69 71 72 73 73 73 73 73 73 74 75 76 77 77 77 76 75 75 74 74 73 72 72 72 71 71 71 70 70 71 71 69 68 67 67
52 48 49 45 47 48 47 50 52 53 58 52 53 53 55 57 56 52 55 57 58 59 60 60 60 61 62 62 62 62 62 62 62 62 62 63 63 64 64 66 66 66 67 67 66 67 67 67 67 67 67 67 67 67 70 73 73 73 73 75 75 76 76 77 76 76 75 74 74 73 72 72 72 71 71 71 71 70 70 70 70 69 68 67 66 66
51 51 53 51 52 51 53 55 54 52 54 53 51 53 52 54 55 56 55 54 54 55 57 59 60 61 60 61 60 60 61 61 61 62 63 63 63 63 64 65 65 66 66 66 66 66 67 67 67 67 66 67 67 66 66 68 70 73 75 76 76 76 77 76 75 74 73 73 72 72 71 71 71 70 71 71 71 70 70 70 69 69 68 66 66 66
50 52 52 48 51 45 42 52 53 53 54 54 53 54 52 51 52 52 52 52 52 51 51 53 56 56 56 57 57 57 58 61 61 62 62 63 63 63 64 64 65 65 65 64 65 65 65 65 66 66 66 67 67 68 67 68 67 68 71 76 76 76 76 75 73 72 71 71 71 71 70 70 70 70 70 71 70 70 69 69 68 67 66 66 65 65
48 55 51 51 51 50 50 54 55 56 56 55 54 53 51 50 50 50 51 50 50 49 49 49 49 49 49 50 52 52 52 54 56 59 62 63 63 63 63 64 64 65 66 66 66 65 65 65 65 65 66 66 67 68 68 69 70 69 71 73 75 75 74 72 71 71 71 70 70 69 69 69 71 70 70 69 69 68 68 68 67 66 66 65 65 64
52 54 47 51 50 53 54 54 56 55 53 53 52 52 51 49 49 48 48 47 48 48 48 48 48 48 49 49 50 50 50 51 52 54 56 61 63 63 63 63 63 64 64 65 66 66 66 66 66 66 66 66 66 67 67 68 69 70 71 73 74 73 72 71 70 70 70 69 69 68 68 68 68 65 61 57 53 49 48 50 63 66 62 57 56 65
52 48 52 51 49 48 50 53 55 51 51 52 51 51 51 50 50 50 50 50 50 48 48 48 49 50 50 50 50 49 49 50 51 52 52 54 58 63 63 64 64 64 64 65 64 64 65 67 67 67 67 67 67 68 68 68 68 71 72 71 72 72 70 69 69 69 68 68 68 67 67 67 65 63 61 59 57 55 53 50 43 46 59 56 52 49
50 52 52 49 49 48 54 56 57 56 55 55 54 54 54 54 53 53 53 53 52 52 52 50 49 49 49 50 51 51 51 51 50 51 51 52 53 58 63 63 63 63 64 65 65 64 64 65 67 66 64 64 65 66 67 67 69 70 71 71 70 69 69 68 68 67 67 67 67 66 67 66 64 63 61 60 59 58 58 57 54 44 42 46 48 45